Weather History for Kelso-Longview, WA

Change the Weather History Date:

Monday, April 14, 2014

  Actual Average Record
Temperature  
Mean Temperature 52 °F -  
Max Temperature 68 °F 56 °F 68 °F (2014)
Min Temperature 35 °F 39 °F 30 °F (2001)
Degree Days  
Heating Degree Days 14    
Growing Degree Days 2 (Base 50)    
Moisture  
Dew Point 37 °F    
Average Humidity 60    
Maximum Humidity 87    
Minimum Humidity 26    
Precipitation  
Precipitation 0.00 in - - ()
Sea Level Pressure  
Sea Level Pressure 30.17 in    
Wind  
Wind Speed 2 mph (West)    
Max Wind Speed 13 mph    
Max Gust Speed 21 mph    
Visibility 10 miles    
Events      
Averages and records for this station are not official NWS values.
T = Trace of Precipitation, MM = Missing Value Source: NWS Daily Summary

Daily Weather History Graph

Daily Weather History Graph

Search for Another Location

Airport:

Trip Planner

Search our weather history database for the weather conditions in past years. The results will help you decide how hot, cold, wet, or windy it might be!

Date:

Astronomy

Apr. 14, 2014 Rise Set
Actual Time 6:26 AM PDT 7:57 PM PDT
Civil Twilight 5:55 AM PDT 8:29 PM PDT
Nautical Twilight 5:17 AM PDT 9:07 PM PDT
Astronomical Twilight 4:37 AM PDT 9:48 PM PDT
Moon 7:41 PM PDT (4/14) 6:04 AM PDT (4/14)
Length of Visible Light 14h 33m
Length of Day
13h 30m
Full, 100% of the Moon is Illuminated
Apr 14
Full
Apr 15
Full
Apr 22
Last Quarter
Apr 28
New
May 6
First Quarter

Hourly Weather History & Observations

Time (PDT) Temp. Dew Point Humidity Pressure Visibility Wind Dir Wind Speed Gust Speed Precip Events Conditions
12:15 AM 48.2 °F 35.6 °F 62% 30.17 in 10.0 mi Calm Calm - N/A   Clear
12:35 AM 48.2 °F 37.4 °F 66% 30.17 in 10.0 mi Calm Calm - N/A   Clear
12:55 AM 46.4 °F 37.4 °F 71% 30.17 in 10.0 mi Calm Calm - N/A   Clear
1:15 AM 46.4 °F 35.6 °F 66% 30.17 in 10.0 mi Calm Calm - N/A   Clear
1:35 AM 44.6 °F 35.6 °F 71% 30.17 in 10.0 mi Calm Calm - N/A   Clear
1:55 AM 44.6 °F 35.6 °F 71% 30.17 in 10.0 mi Calm Calm - N/A   Clear
2:15 AM 42.8 °F 35.6 °F 76% 30.16 in 10.0 mi Calm Calm - N/A   Clear
2:35 AM 42.8 °F 35.6 °F 76% 30.16 in 10.0 mi Calm Calm - N/A   Clear
2:55 AM 41.0 °F 35.6 °F 81% 30.15 in 10.0 mi Calm Calm - N/A   Clear
3:15 AM 41.0 °F 35.6 °F 81% 30.14 in 10.0 mi Calm Calm - N/A   Clear
3:35 AM 39.2 °F 33.8 °F 81% 30.13 in 10.0 mi Calm Calm - N/A   Clear
3:55 AM 39.2 °F 33.8 °F 81% 30.13 in 10.0 mi Calm Calm - N/A   Clear
4:15 AM 39.2 °F 33.8 °F 81% 30.13 in 10.0 mi Calm Calm - N/A   Clear
4:35 AM 39.2 °F 33.8 °F 81% 30.14 in 10.0 mi Calm Calm - N/A   Clear
4:55 AM 39.2 °F 33.8 °F 81% 30.14 in 10.0 mi Calm Calm - N/A   Clear
5:15 AM 39.2 °F 33.8 °F 81% 30.14 in 10.0 mi Calm Calm - N/A   Clear
5:35 AM 37.4 °F 33.8 °F 87% 30.15 in 10.0 mi Calm Calm - N/A   Clear
5:55 AM 37.4 °F 32.0 °F 81% 30.15 in 10.0 mi Calm Calm - N/A   Clear
6:15 AM 37.4 °F 32.0 °F 81% 30.15 in 10.0 mi Calm Calm - N/A   Clear
6:35 AM 35.6 °F 30.2 °F 81% 30.16 in 10.0 mi Calm Calm - N/A   Clear
6:55 AM 37.4 °F 30.2 °F 75% 30.15 in 10.0 mi Calm Calm - N/A   Clear
7:15 AM 37.4 °F 32.0 °F 81% 30.16 in 10.0 mi Calm Calm - N/A   Clear
7:35 AM 39.2 °F 33.8 °F 81% 30.16 in 10.0 mi Calm Calm - N/A   Clear
7:55 AM 41.0 °F 33.8 °F 76% 30.17 in 10.0 mi Calm Calm - N/A   Clear
8:15 AM 42.8 °F 33.8 °F 70% 30.17 in 10.0 mi Calm Calm - N/A   Clear
8:35 AM 44.6 °F 33.8 °F 66% 30.17 in 10.0 mi Calm Calm - N/A   Clear
8:55 AM 46.4 °F 33.8 °F 62% 30.17 in 10.0 mi Calm Calm - N/A   Clear
9:15 AM 46.4 °F 35.6 °F 66% 30.16 in 10.0 mi Calm Calm - N/A   Clear
9:35 AM 48.2 °F 35.6 °F 62% 30.16 in 10.0 mi Calm Calm - N/A   Clear
9:55 AM 50.0 °F 35.6 °F 58% 30.15 in 10.0 mi Calm Calm - N/A   Clear
10:15 AM 51.8 °F 37.4 °F 58% 30.15 in 10.0 mi Calm Calm - N/A   Clear
10:35 AM 55.4 °F 37.4 °F 51% 30.15 in 10.0 mi Calm Calm - N/A   Clear
10:55 AM 55.4 °F 35.6 °F 47% 30.14 in 10.0 mi Calm Calm - N/A   Clear
11:15 AM 59.0 °F 30.2 °F 34% 30.14 in 10.0 mi Calm Calm - N/A   Clear
11:35 AM 60.8 °F 33.8 °F 36% 30.15 in 10.0 mi South 4.6 mph - N/A   Clear
11:55 AM 64.4 °F 35.6 °F 34% 30.14 in 10.0 mi SE 8.1 mph - N/A   Clear
12:15 PM 66.2 °F 30.2 °F 26% 30.14 in 10.0 mi SSE 8.1 mph - N/A   Clear
12:35 PM 66.2 °F 33.8 °F 30% 30.15 in 10.0 mi South 8.1 mph - N/A   Clear
12:55 PM 66.2 °F 33.8 °F 30% 30.15 in 10.0 mi South 8.1 mph - N/A   Clear
1:15 PM 68.0 °F 35.6 °F 30% 30.14 in 10.0 mi West 3.5 mph - N/A   Clear
1:35 PM 68.0 °F 37.4 °F 33% 30.14 in 10.0 mi WNW 5.8 mph - N/A   Clear
1:55 PM 68.0 °F 37.4 °F 33% 30.15 in 10.0 mi West 6.9 mph - N/A   Clear
2:15 PM 68.0 °F 41.0 °F 37% 30.14 in 10.0 mi West 12.7 mph 18.4 mph N/A   Clear
2:35 PM 66.2 °F 37.4 °F 35% 30.15 in 10.0 mi WNW 9.2 mph 20.7 mph N/A   Clear
2:55 PM 64.4 °F 41.0 °F 42% 30.15 in 10.0 mi NW 10.4 mph 18.4 mph N/A   Clear
3:15 PM 64.4 °F 39.2 °F 40% 30.16 in 10.0 mi West 12.7 mph 19.6 mph N/A   Clear
3:35 PM 64.4 °F 37.4 °F 37% 30.17 in 10.0 mi West 6.9 mph 17.3 mph N/A   Clear
3:55 PM 64.4 °F 41.0 °F 42% 30.17 in 10.0 mi WNW 8.1 mph 17.3 mph N/A   Clear
4:15 PM 62.6 °F 42.8 °F 48% 30.17 in 10.0 mi West 10.4 mph 19.6 mph N/A   Clear
4:35 PM 62.6 °F 42.8 °F 48% 30.18 in 10.0 mi WNW 10.4 mph 17.3 mph N/A   Clear
4:55 PM 60.8 °F 42.8 °F 52% 30.18 in 10.0 mi WNW 9.2 mph - N/A   Clear
5:15 PM 60.8 °F 42.8 °F 52% 30.18 in 10.0 mi West 9.2 mph 16.1 mph N/A   Clear
5:35 PM 59.0 °F 41.0 °F 51% 30.18 in 10.0 mi West 10.4 mph 17.3 mph N/A   Clear
5:55 PM 57.2 °F 41.0 °F 55% 30.18 in 10.0 mi WNW 10.4 mph 18.4 mph N/A   Clear
6:15 PM 55.4 °F 41.0 °F 58% 30.19 in 10.0 mi West 10.4 mph 18.4 mph N/A   Clear
6:35 PM 55.4 °F 39.2 °F 54% 30.19 in 10.0 mi West 10.4 mph 17.3 mph N/A   Clear
6:55 PM 53.6 °F 39.2 °F 58% 30.19 in 10.0 mi West 5.8 mph 17.3 mph N/A   Clear
7:15 PM 53.6 °F 41.0 °F 62% 30.21 in 10.0 mi NW 5.8 mph - N/A   Mostly Cloudy
7:35 PM 53.6 °F 41.0 °F 62% 30.21 in 10.0 mi WNW 8.1 mph - N/A   Overcast
7:55 PM 51.8 °F 41.0 °F 67% 30.21 in 10.0 mi West 8.1 mph - N/A   Overcast
8:15 PM 51.8 °F 41.0 °F 67% 30.21 in 10.0 mi West 10.4 mph 17.3 mph N/A   Mostly Cloudy
8:35 PM 51.8 °F 39.2 °F 62% 30.22 in 10.0 mi West 9.2 mph 17.3 mph N/A   Partly Cloudy
8:55 PM 51.8 °F 39.2 °F 62% 30.23 in 10.0 mi WNW 5.8 mph - N/A   Clear
9:15 PM 51.8 °F 37.4 °F 58% 30.23 in 10.0 mi West 6.9 mph - N/A   Clear
9:35 PM 50.0 °F 37.4 °F 62% 30.24 in 10.0 mi WNW 8.1 mph - N/A   Clear
9:55 PM 50.0 °F 37.4 °F 62% 30.24 in 10.0 mi WNW 5.8 mph - N/A   Clear
10:15 PM 50.0 °F 37.4 °F 62% 30.24 in 10.0 mi WNW 5.8 mph - N/A   Clear
10:35 PM 50.0 °F 37.4 °F 62% 30.24 in 10.0 mi WNW 5.8 mph - N/A   Clear
10:55 PM 50.0 °F 37.4 °F 62% 30.24 in 10.0 mi Calm Calm - N/A   Clear
11:15 PM 50.0 °F 37.4 °F 62% 30.24 in 10.0 mi WNW 5.8 mph - N/A   Partly Cloudy
11:35 PM 48.2 °F 37.4 °F 66% 30.25 in 10.0 mi WNW 3.5 mph - N/A   Mostly Cloudy
11:55 PM 48.2 °F 37.4 °F 66% 30.25 in 10.0 mi NW 5.8 mph - N/A   Overcast